Weather History for KTNB - April, 2014

Change the Weather History Date:

Saturday, April 5, 2014

  Actual Average (KGEV) Record (KGEV)
Temperature  
Mean Temperature 46 °F -  
Max Temperature 55 °F 58 °F 79 °F (1986)
Min Temperature 37 °F 36 °F 23 °F (1987)
Degree Days  
Heating Degree Days 18    
Moisture  
Dew Point 31 °F    
Average Humidity 56    
Maximum Humidity 76    
Minimum Humidity 33    
Precipitation  
Precipitation 0.00 in - - ()
Sea Level Pressure  
Sea Level Pressure 30.00 in    
Wind  
Wind Speed 17 mph (WNW)    
Max Wind Speed 28 mph    
Max Gust Speed 37 mph    
Visibility 10 miles    
Events      
Averages and records for this station are not official NWS values.
T = Trace of Precipitation, MM = Missing Value Source: NWS Daily Summary

Daily Weather History Graph

Daily Weather History Graph

Search for Another Location

Airport or City:

Trip Planner

Search our weather history database for the weather conditions in past years. The results will help you decide how hot, cold, wet, or windy it might be!

Date:

Astronomy

Apr. 05, 2014 Rise Set
Actual Time 7:07 AM EDT 7:51 PM EDT
Civil Twilight 6:41 AM EDT 8:18 PM EDT
Nautical Twilight 6:10 AM EDT 8:48 PM EDT
Astronomical Twilight 5:38 AM EDT 9:20 PM EDT
Moon 11:19 AM EDT (4/5) 12:54 AM EDT (4/5)
Length of Visible Light 13h 36m
Length of Day
12h 44m
Waxing Crescent, 34% of the Moon is Illuminated
Apr 5
Waxing Crescent
Apr 7
First Quarter
Apr 15
Full
Apr 22
Last Quarter
Apr 29
New

Hourly Weather History & Observations

Time (EDT) Temp. Windchill Dew Point Humidity Pressure Visibility Wind Dir Wind Speed Gust Speed Precip Events Conditions
12:15 AM 54.0 °F - 43.2 °F 67% 29.89 in 10.0 mi West 20.7 mph 29.9 mph N/A   Clear
12:35 AM 54.0 °F - 43.9 °F 69% 29.90 in 10.0 mi WNW 18.4 mph 32.2 mph N/A   Clear
12:55 AM 53.2 °F - 43.9 °F 71% 29.90 in 10.0 mi West 18.4 mph 28.8 mph N/A   Clear
1:15 AM 52.7 °F - 43.7 °F 71% 29.89 in 10.0 mi West 15.0 mph 26.5 mph N/A   Clear
1:35 AM 52.7 °F - 43.9 °F 72% 29.89 in 10.0 mi WNW 18.4 mph 27.6 mph N/A   Clear
1:55 AM 52.2 °F - 43.5 °F 72% 29.89 in 10.0 mi WNW 17.3 mph 27.6 mph N/A   Clear
2:15 AM 51.3 °F - 42.1 °F 71% 29.89 in 10.0 mi WNW 17.3 mph 33.4 mph N/A   Clear
2:35 AM 50.0 °F - 41.2 °F 72% 29.90 in 10.0 mi WNW 25.3 mph 33.4 mph N/A   Clear
2:55 AM 48.7 °F - 39.6 °F 71% 29.91 in 10.0 mi WNW 20.7 mph 28.8 mph N/A   Clear
3:15 AM 47.5 °F - 38.3 °F 70% 29.91 in 10.0 mi WNW 19.6 mph 31.1 mph N/A   Clear
3:35 AM 46.4 °F 38.7 °F 37.0 °F 70% 29.91 in 10.0 mi WNW 20.7 mph 32.2 mph N/A   Clear
3:55 AM 45.5 °F 36.9 °F 36.1 °F 70% 29.91 in 10.0 mi WNW 24.2 mph 31.1 mph N/A   Clear
4:15 AM 44.8 °F 35.9 °F 35.8 °F 71% 29.91 in 10.0 mi WNW 24.2 mph 34.5 mph N/A   Clear
4:35 AM 44.1 °F 34.4 °F 34.9 °F 70% 29.91 in 10.0 mi WNW 27.6 mph 36.8 mph N/A   Clear
4:55 AM 43.7 °F 36.0 °F 34.7 °F 71% 29.92 in 10.0 mi WNW 17.3 mph 28.8 mph N/A   Clear
5:15 AM 43.0 °F 35.1 °F 34.0 °F 71% 29.92 in 10.0 mi WNW 17.3 mph 32.2 mph N/A   Clear
5:35 AM 42.4 °F 32.8 °F 33.8 °F 71% 29.92 in 10.0 mi WNW 24.2 mph 34.5 mph N/A   Clear
5:55 AM 41.9 °F 32.8 °F 34.0 °F 73% 29.92 in 10.0 mi WNW 20.7 mph 28.8 mph N/A   Clear
6:15 AM 41.4 °F 31.2 °F 33.1 °F 72% 29.92 in 10.0 mi WNW 25.3 mph 33.4 mph N/A   Clear
6:35 AM 40.3 °F 30.7 °F 32.7 °F 74% 29.93 in 10.0 mi NW 20.7 mph 33.4 mph N/A   Clear
6:55 AM 39.6 °F 29.7 °F 32.0 °F 74% 29.94 in 10.0 mi WNW 20.7 mph 32.2 mph N/A   Clear
7:15 AM 39.4 °F 30.7 °F 31.8 °F 74% 29.95 in 10.0 mi WNW 16.1 mph 27.6 mph N/A   Clear
7:35 AM 39.2 °F 32.5 °F 31.1 °F 73% 29.97 in 10.0 mi NW 10.4 mph 24.2 mph N/A   Clear
7:55 AM 38.8 °F 33.8 °F 30.0 °F 71% 29.98 in 10.0 mi NNW 6.9 mph 19.6 mph N/A   Scattered Clouds
8:15 AM 38.7 °F 31.4 °F 29.1 °F 69% 29.99 in 10.0 mi NW 11.5 mph 16.1 mph N/A   Scattered Clouds
8:35 AM 39.0 °F 29.9 °F 29.3 °F 68% 30.00 in 10.0 mi NW 17.3 mph 21.9 mph N/A   Mostly Cloudy
8:55 AM 39.2 °F 32.0 °F 29.1 °F 67% 30.00 in 10.0 mi NW 11.5 mph 29.9 mph N/A   Scattered Clouds
9:15 AM 39.6 °F 29.7 °F 29.3 °F 67% 30.01 in 10.0 mi WNW 20.7 mph 26.5 mph N/A   Clear
9:35 AM 39.7 °F 30.0 °F 29.1 °F 66% 30.01 in 10.0 mi WNW 20.7 mph 31.1 mph N/A   Clear
9:55 AM 41.0 °F 32.5 °F 28.9 °F 62% 30.02 in 10.0 mi WNW 17.3 mph 26.5 mph N/A   Clear
10:15 AM 41.2 °F 31.4 °F 28.4 °F 60% 30.02 in 10.0 mi WNW 23.0 mph 33.4 mph N/A   Clear
10:35 AM 41.5 °F 31.9 °F 28.2 °F 59% 30.02 in 10.0 mi WNW 23.0 mph 32.2 mph N/A   Clear
10:55 AM 41.9 °F 32.6 °F 27.9 °F 58% 30.03 in 10.0 mi WNW 21.9 mph 28.8 mph N/A   Clear
11:15 AM 42.4 °F 34.1 °F 27.3 °F 55% 30.03 in 10.0 mi NW 18.4 mph 28.8 mph N/A   Clear
11:35 AM 43.0 °F 34.8 °F 27.3 °F 54% 30.03 in 10.0 mi WNW 18.4 mph 28.8 mph N/A   Clear
11:55 AM 44.4 °F 36.1 °F 26.8 °F 50% 30.03 in 10.0 mi WNW 20.7 mph 25.3 mph N/A   Clear
12:15 PM 45.5 °F 38.9 °F 26.8 °F 48% 30.03 in 10.0 mi WNW 15.0 mph 27.6 mph N/A   Clear
12:35 PM 47.1 °F - 27.1 °F 46% 30.02 in 10.0 mi WNW 18.4 mph 27.6 mph N/A   Clear
12:55 PM 49.1 °F - 27.0 °F 42% 30.03 in 10.0 mi WNW 20.7 mph 26.5 mph N/A   Clear
1:15 PM 48.6 °F - 27.0 °F 43% 30.03 in 10.0 mi WNW 18.4 mph 25.3 mph N/A   Clear
1:35 PM 49.6 °F - 27.0 °F 41% 30.03 in 10.0 mi West 15.0 mph 21.9 mph N/A   Clear
1:55 PM 50.5 °F - 27.3 °F 41% 30.03 in 10.0 mi West 16.1 mph 19.6 mph N/A   Clear
2:15 PM 50.9 °F - 27.3 °F 40% 30.03 in 10.0 mi West 10.4 mph 18.4 mph N/A   Clear
2:35 PM 52.3 °F - 27.7 °F 39% 30.03 in 10.0 mi West 13.8 mph 19.6 mph N/A   Clear
2:55 PM 53.2 °F - 27.3 °F 37% 30.03 in 10.0 mi WNW 12.7 mph 20.7 mph N/A   Clear
3:15 PM 54.0 °F - 27.3 °F 36% 30.03 in 10.0 mi WNW 15.0 mph 19.6 mph N/A   Clear
3:35 PM 54.0 °F - 27.0 °F 35% 30.02 in 10.0 mi West 13.8 mph 19.6 mph N/A   Clear
3:55 PM 54.5 °F - 26.6 °F 34% 30.02 in 10.0 mi West 12.7 mph 19.6 mph N/A   Clear
4:15 PM 55.0 °F - 27.1 °F 34% 30.01 in 10.0 mi WNW 12.7 mph 19.6 mph N/A   Clear
4:35 PM 55.6 °F - 26.8 °F 33% 30.02 in 10.0 mi WNW 10.4 mph - N/A   Clear
4:55 PM 55.2 °F - 26.2 °F 33% 30.02 in 10.0 mi WNW 10.4 mph 18.4 mph N/A   Clear
5:15 PM 55.0 °F - 27.0 °F 34% 30.02 in 10.0 mi WNW 11.5 mph - N/A   Clear
5:35 PM 54.9 °F - 27.0 °F 34% 30.03 in 10.0 mi WNW 12.7 mph - N/A   Clear
5:55 PM 55.0 °F - 27.0 °F 34% 30.03 in 10.0 mi WNW 12.7 mph 17.3 mph N/A   Clear
6:15 PM 54.9 °F - 27.0 °F 34% 30.03 in 10.0 mi WNW 9.2 mph - N/A   Clear
6:35 PM 54.3 °F - 26.8 °F 35% 30.04 in 10.0 mi NW 11.5 mph - N/A   Clear
6:55 PM 53.6 °F - 27.3 °F 36% 30.05 in 10.0 mi WNW 6.9 mph - N/A   Clear
7:15 PM 53.1 °F - 27.9 °F 38% 30.05 in 10.0 mi WNW 10.4 mph - N/A   Clear
7:35 PM 52.0 °F - 28.2 °F 40% 30.05 in 10.0 mi WNW 10.4 mph - N/A   Clear
7:55 PM 50.9 °F - 28.4 °F 42% 30.06 in 10.0 mi West 9.2 mph - N/A   Clear
8:15 PM 50.0 °F - 28.8 °F 44% 30.06 in 10.0 mi WNW 6.9 mph - N/A   Clear
8:35 PM 48.9 °F - 28.9 °F 46% 30.07 in 10.0 mi WNW 6.9 mph - N/A   Clear
8:55 PM 48.2 °F - 28.9 °F 47% 30.07 in 10.0 mi West 3.5 mph - N/A   Clear
9:15 PM 47.5 °F - 28.9 °F 49% 30.07 in 10.0 mi West 5.8 mph - N/A   Clear
9:35 PM 46.9 °F - 28.4 °F 49% 30.08 in 10.0 mi West 4.6 mph - N/A   Clear
9:55 PM 46.4 °F 45.2 °F 27.9 °F 48% 30.09 in 10.0 mi WNW 3.5 mph - N/A   Clear
10:15 PM 43.9 °F - 30.0 °F 58% 30.09 in 10.0 mi Calm Calm - N/A   Clear
10:35 PM 42.8 °F - 30.4 °F 62% 30.09 in 10.0 mi Calm Calm - N/A   Clear
10:55 PM 40.8 °F - 30.9 °F 68% 30.10 in 10.0 mi Calm Calm - N/A   Clear
11:15 PM 41.9 °F - 30.6 °F 64% 30.10 in 10.0 mi Calm Calm - N/A   Clear
11:35 PM 39.7 °F - 31.1 °F 71% 30.10 in 10.0 mi Calm Calm - N/A   Clear
11:55 PM 37.9 °F - 31.1 °F 76% 30.10 in 10.0 mi Calm Calm - N/A   Clear